Regional Weather Roundup
Issued by NWS Goodland, KS

Home | Current Version | Previous Version | Graphics & Text | Print | Product List | Glossary On
Versions: 1 2 3 4 5 6 7 8 9 10 11 12 13 14 15 16 17 18 19 20 21 22 23 24 25 26 27 28 29 30 31 32 33 34 35 36 37 38 39 40 41 42 43 44 45 46 47 48 49 50
725
ASUS43 KGLD 131408
RWRGLD

GOODLAND FORECAST AREA HOURLY WEATHER ROUNDUP
NATIONAL WEATHER SERVICE GOODLAND KS
700 AM MST SAT FEB 13 2016

...OFFICIAL OBSERVATIONS...

CITY           SKY/WX    TMP DP  RH WIND       PRES   REMARKS
GOODLAND KS    FOG       25  24  96 S22       30.23S VSB 1/2 WCI  10
HILL CITY KS   CLOUDY    20  15  81 SE14      30.40F WCI   7
IMPERIAL NEB   CLOUDY    26  24  92 S17       30.22F WCI  13
MCCOOK NEB     CLOUDY    21  19  92 SE10      30.33F WCI  10
AKRON CO       CLOUDY    28  28 100 S12       30.10S WCI  18
BURLINGTON CO  FOG       26  23  88 S21       30.18F VSB 1/2 WCI  12
LIMON CO       CLOUDY    25  25 100 S8        30.11S FOG
$$

...UNOFFICIAL OBSERVATIONS...

CITY           SKY/WX    TMP DP  RH WIND       PRES   REMARKS
COLBY KS       CLOUDY    25  25 100 SE16      30.29F FOG     WCI  12
GOVE KS          N/A     22  32 100 MISG        N/A
LENORA KS        N/A     19  32 100 MISG        N/A
NORTON KS      CLOUDY    19  12  73 SE14      30.37F WCI   6
SHARON SPRINGS   N/A     25  24  93 SE12G20     N/A  WCI  14
KIT CARSON CO    N/A     24  22  91 MISG        N/A
YUMA CO          N/A     28  27  94 S10G18      N/A  WCI  19
$$




USA.gov is the U.S. government's official web portal to all federal, state and local government web resources and services.